Weather in Osinovo

Russia / Novosibirsk Oblast     55°27′33″N   78°50′51″E
temp.,
°C
wind,
m/s
gust,
m/s
humid.,
%
clouds,
%
prec.,
mm/h
press.,
hPa
HPBL,
m
3 march, wed
wed301:00−16ssw239693 0.2 101652
04:00−17ssw339783 0.1 101554
07:00−19ssw349881 0.1 101652
10:00−17ssw369690 0.1 1016203
13:00−14ssw479588 0.1 1016300
16:00−12s5893100 0.0 1016417
19:00−13ssw61193100 0.1 1016419
22:00−15ssw71593100 0.0 1016450
4 march, thu
thu401:00−13ssw71392100 0.1 1015523
04:00−10ssw71494100 0.6 1013559
07:00−9ssw71494100 1.4 1013545
10:00−8ssw81393100 0.5 1012529
13:00−5ssw81493100 1.1 1011700
16:00−3ssw91493100 0.4 1010804
19:00−3ssw91692100 0.8 1009806
22:00−3ssw101694100 0.8 1008859
5 march, fri
fri501:00−3ssw91694100 1.8 1006884
04:00−3ssw91592100 0.3 1004763
07:00−4ssw81494100 0.5 1004632
10:00−3wsw81290100 0.9 1005823
13:00−7wsw81391100 0.9 1009605
16:00−7sw81487100 0.0 1011669
19:00−7sw71393100 0.8 10121024
22:00−7sw71491100 0.4 1013747
6 march, sat
sat601:00−7sw61393100 0.6 1014516
04:00−6ssw61394100 0.2 1013538
07:00−3ssw81495100 1.1 1011811
10:00−5ssw101694100 1.3 1010818
13:00−5ssw101694100 2.5 1008910
16:00−3sw111793100 1.4 10061070
19:00−3sw101793100 1.8 10051064
22:00−2wsw101886100 0.6 1005963
7 march, sun
sun701:00−4w81486100 0.6 1009865
04:00−9wsw5129397 0.0 1012333
07:00−12sw499587 0.0 1014186
10:00−11ssw489588 0.0 1014247
13:00−6s589094 0.0 1013420
16:00−2ssw81494100 0.6 1010875
19:00−3ssw91595100 1.5 1007859
22:000sw91693100 0.7 1006866